Location: Oslo
(59.9170°N, 10.7500°E)
Time: 04:32:25
(UTC+02:00)

ISS - Visible Passes

Search period start: 28 July 2017 00:00
Search period end: 07 August 2017 00:00
Orbit: 400 x 408 km, 51.6° (Epoch: 28 July)

Date Brightness Start Highest point End Pass type
(mag) Time Alt. Az. Time Alt. Az. Time Alt. Az.
28 Jul -2.3 00:44:16 10° SW 00:46:33 18° S 00:46:57 17° S visible
28 Jul -2.3 23:52:04 10° SW 23:54:29 19° S 23:56:09 14° SSE visible
29 Jul -2.3 22:59:57 10° SW 23:02:23 19° S 23:04:49 10° SE visible
30 Jul -1.9 00:36:11 10° SW 00:38:01 15° SSW 00:38:01 15° SSW visible
30 Jul -2.1 23:43:48 10° SW 23:46:00 17° SSW 23:47:17 14° SSE visible
31 Jul -2.2 22:51:32 10° SW 22:53:54 19° S 22:56:16 10° SE visible
01 Aug -1.5 00:28:37 10° SW 00:29:12 11° SSW 00:29:12 11° SSW visible
01 Aug -1.8 23:35:43 10° SW 23:37:26 14° SSW 23:38:31 12° S visible
02 Aug -1.9 22:43:13 10° SW 22:45:21 16° SSW 22:47:28 10° SSE visible
04 Aug -1.5 22:35:10 10° SW 22:36:42 13° SSW 22:38:13 10° S visible
